Year,Month,Day,Hour,Minute,Value (Times are PST for temperature in C)
2011,04,13,00,00,7.30
2011,04,13,00,01,7.30
2011,04,13,00,02,7.30
2011,04,13,00,03,7.30
2011,04,13,00,04,7.30
2011,04,13,00,05,7.30
2011,04,13,00,06,7.20
2011,04,13,00,07,7.20
2011,04,13,00,08,7.20
2011,04,13,00,09,7.20
2011,04,13,00,10,7.20
2011,04,13,00,11,7.20
2011,04,13,00,12,7.20
2011,04,13,00,13,7.20
2011,04,13,00,14,7.20
2011,04,13,00,15,7.20
2011,04,13,00,16,7.20
2011,04,13,00,17,7.20
2011,04,13,00,18,7.20
2011,04,13,00,19,7.20
2011,04,13,00,20,7.20
2011,04,13,00,21,7.20
2011,04,13,00,22,7.20
2011,04,13,00,23,7.20
2011,04,13,00,24,7.10
2011,04,13,00,25,7.10
2011,04,13,00,26,7.10
2011,04,13,00,27,7.10
2011,04,13,00,28,7.10
2011,04,13,00,29,7.00
2011,04,13,00,30,7.00
2011,04,13,00,31,6.90
2011,04,13,00,32,6.90
2011,04,13,00,33,6.90
2011,04,13,00,34,6.90
2011,04,13,00,35,6.90
2011,04,13,00,36,6.90
2011,04,13,00,37,6.90
2011,04,13,00,38,6.90
2011,04,13,00,39,6.90
2011,04,13,00,40,6.90
2011,04,13,00,41,6.90
2011,04,13,00,42,6.90
2011,04,13,00,43,6.80
2011,04,13,00,44,6.80
2011,04,13,00,45,6.80
2011,04,13,00,46,6.80
2011,04,13,00,47,6.80
2011,04,13,00,48,6.80
2011,04,13,00,49,6.80
2011,04,13,00,50,6.80
2011,04,13,00,51,6.80
2011,04,13,00,52,6.80
2011,04,13,00,53,6.80
2011,04,13,00,54,6.80
2011,04,13,00,55,6.80
2011,04,13,00,56,6.80
2011,04,13,00,57,6.80
2011,04,13,00,58,6.80
2011,04,13,00,59,6.80
2011,04,13,01,00,6.80
2011,04,13,01,01,6.80
2011,04,13,01,02,6.80
2011,04,13,01,03,6.80
2011,04,13,01,04,6.80
2011,04,13,01,05,6.80
2011,04,13,01,06,6.80
2011,04,13,01,07,6.80
2011,04,13,01,08,6.80
2011,04,13,01,09,6.80
2011,04,13,01,10,6.80
2011,04,13,01,11,6.80
2011,04,13,01,12,6.80
2011,04,13,01,13,6.80
2011,04,13,01,14,6.80
2011,04,13,01,15,6.80
2011,04,13,01,16,6.80
2011,04,13,01,17,6.80
2011,04,13,01,18,6.80
2011,04,13,01,19,6.80
2011,04,13,01,20,6.80
2011,04,13,01,21,6.80
2011,04,13,01,22,6.80
2011,04,13,01,23,6.80
2011,04,13,01,24,6.70
2011,04,13,01,25,6.70
2011,04,13,01,26,6.70
2011,04,13,01,27,6.70
2011,04,13,01,28,6.70
2011,04,13,01,29,6.70
2011,04,13,01,30,6.70
2011,04,13,01,31,6.70
2011,04,13,01,32,6.70
2011,04,13,01,33,6.70
2011,04,13,01,34,6.70
2011,04,13,01,35,6.70
2011,04,13,01,36,6.70
2011,04,13,01,37,6.70
2011,04,13,01,38,6.70
2011,04,13,01,39,6.70
2011,04,13,01,40,6.70
2011,04,13,01,41,6.70
2011,04,13,01,42,6.70
2011,04,13,01,43,6.70
2011,04,13,01,44,6.70
2011,04,13,01,45,6.70
2011,04,13,01,46,6.70
2011,04,13,01,47,6.70
2011,04,13,01,48,6.70
2011,04,13,01,49,6.60
2011,04,13,01,50,6.60
2011,04,13,01,51,6.60
2011,04,13,01,52,6.60
2011,04,13,01,53,6.60
2011,04,13,01,54,6.60
2011,04,13,01,55,6.60
2011,04,13,01,56,6.60
2011,04,13,01,57,6.60
2011,04,13,01,58,6.60
2011,04,13,01,59,6.50
2011,04,13,02,00,6.50
2011,04,13,02,01,6.50
2011,04,13,02,02,6.50
2011,04,13,02,03,6.50
2011,04,13,02,04,6.50
2011,04,13,02,05,6.50
2011,04,13,02,06,6.50
2011,04,13,02,07,6.40
2011,04,13,02,08,6.40
2011,04,13,02,09,6.40
2011,04,13,02,10,6.40
2011,04,13,02,11,6.40
2011,04,13,02,12,6.40
2011,04,13,02,13,6.40
2011,04,13,02,14,6.40
2011,04,13,02,15,6.40
2011,04,13,02,16,6.40
2011,04,13,02,17,6.40
2011,04,13,02,18,6.40
2011,04,13,02,19,6.40
2011,04,13,02,20,6.40
2011,04,13,02,21,6.40
2011,04,13,02,22,6.40
2011,04,13,02,23,6.40
2011,04,13,02,24,6.40
2011,04,13,02,25,6.40
2011,04,13,02,26,6.40
2011,04,13,02,27,6.40
2011,04,13,02,28,6.40
2011,04,13,02,29,6.40
2011,04,13,02,30,6.40
2011,04,13,02,31,6.30
2011,04,13,02,32,6.30
2011,04,13,02,33,6.30
2011,04,13,02,34,6.30
2011,04,13,02,35,6.30
2011,04,13,02,36,6.30
2011,04,13,02,37,6.30
2011,04,13,02,38,6.30
2011,04,13,02,39,6.30
2011,04,13,02,40,6.30
2011,04,13,02,41,6.30
2011,04,13,02,42,6.30
2011,04,13,02,43,6.30
2011,04,13,02,44,6.30
2011,04,13,02,45,6.30
2011,04,13,02,46,6.30
2011,04,13,02,47,6.30
2011,04,13,02,48,6.30
2011,04,13,02,49,6.30
2011,04,13,02,50,6.30
2011,04,13,02,51,6.30
2011,04,13,02,52,6.30
2011,04,13,02,53,6.30
2011,04,13,02,54,6.30
2011,04,13,02,55,6.30
2011,04,13,02,56,6.30
2011,04,13,02,57,6.30
2011,04,13,02,58,6.30
2011,04,13,02,59,6.30
2011,04,13,03,00,6.30
2011,04,13,03,01,6.30
2011,04,13,03,02,6.30
2011,04,13,03,03,6.30
2011,04,13,03,04,6.30
2011,04,13,03,05,6.30
2011,04,13,03,06,6.30
2011,04,13,03,07,6.30
2011,04,13,03,08,6.30
2011,04,13,03,09,6.30
2011,04,13,03,10,6.30
2011,04,13,03,11,6.20
2011,04,13,03,12,6.20
2011,04,13,03,13,6.30
2011,04,13,03,14,6.20
2011,04,13,03,15,6.20
2011,04,13,03,16,6.20
2011,04,13,03,17,6.20
2011,04,13,03,18,6.20
2011,04,13,03,19,6.20
2011,04,13,03,20,6.20
2011,04,13,03,21,6.20
2011,04,13,03,22,6.20
2011,04,13,03,23,6.20
2011,04,13,03,24,6.20
2011,04,13,03,25,6.20
2011,04,13,03,26,6.20
2011,04,13,03,27,6.20
2011,04,13,03,28,6.10
2011,04,13,03,29,6.10
2011,04,13,03,30,6.10
2011,04,13,03,31,6.10
2011,04,13,03,32,6.10
2011,04,13,03,33,6.10
2011,04,13,03,34,6.10
2011,04,13,03,35,6.10
2011,04,13,03,36,6.10
2011,04,13,03,37,6.10
2011,04,13,03,38,6.10
2011,04,13,03,39,6.10
2011,04,13,03,40,6.10
2011,04,13,03,41,6.10
2011,04,13,03,42,6.10
2011,04,13,03,43,6.10
2011,04,13,03,44,6.10
2011,04,13,03,45,6.10
2011,04,13,03,46,6.10
2011,04,13,03,47,6.10
2011,04,13,03,48,6.10
2011,04,13,03,49,6.10
2011,04,13,03,50,6.00
2011,04,13,03,51,6.00
2011,04,13,03,52,6.00
2011,04,13,03,53,6.00
2011,04,13,03,54,6.00
2011,04,13,03,55,6.00
2011,04,13,03,56,6.00
2011,04,13,03,57,5.90
2011,04,13,03,58,5.90
2011,04,13,03,59,5.90
2011,04,13,04,00,5.90
2011,04,13,04,01,5.90
2011,04,13,04,02,5.90
2011,04,13,04,03,5.90
2011,04,13,04,04,5.90
2011,04,13,04,05,5.90
2011,04,13,04,06,5.80
2011,04,13,04,07,5.80
2011,04,13,04,08,5.80
2011,04,13,04,09,5.80
2011,04,13,04,10,5.80
2011,04,13,04,11,5.80
2011,04,13,04,12,5.80
2011,04,13,04,13,5.80
2011,04,13,04,14,5.80
2011,04,13,04,15,5.80
2011,04,13,04,16,5.70
2011,04,13,04,17,5.70
2011,04,13,04,18,5.70
2011,04,13,04,19,5.70
2011,04,13,04,20,5.70
2011,04,13,04,21,5.70
2011,04,13,04,22,5.70
2011,04,13,04,23,5.70
2011,04,13,04,24,5.60
2011,04,13,04,25,5.60
2011,04,13,04,26,5.60
2011,04,13,04,27,5.60
2011,04,13,04,28,5.50
2011,04,13,04,29,5.50
2011,04,13,04,30,5.50
2011,04,13,04,31,5.50
2011,04,13,04,32,5.50
2011,04,13,04,33,5.40
2011,04,13,04,34,5.40
2011,04,13,04,35,5.40
2011,04,13,04,36,5.40
2011,04,13,04,37,5.40
2011,04,13,04,38,5.40
2011,04,13,04,39,5.40
2011,04,13,04,40,5.40
2011,04,13,04,41,5.40
2011,04,13,04,42,5.30
2011,04,13,04,43,5.30
2011,04,13,04,44,5.30
2011,04,13,04,45,5.30
2011,04,13,04,46,5.30
2011,04,13,04,47,5.30
2011,04,13,04,48,5.30
2011,04,13,04,49,5.30
2011,04,13,04,50,5.30
2011,04,13,04,51,5.30
2011,04,13,04,52,5.30
2011,04,13,04,53,5.30
2011,04,13,04,54,5.30
2011,04,13,04,55,5.30
2011,04,13,04,56,5.30
2011,04,13,04,57,5.30
2011,04,13,04,58,5.30
2011,04,13,04,59,5.30
2011,04,13,05,00,5.30
2011,04,13,05,01,5.20
2011,04,13,05,02,5.20
2011,04,13,05,03,5.20
2011,04,13,05,04,5.20
2011,04,13,05,05,5.20
2011,04,13,05,06,5.20
2011,04,13,05,07,5.20
2011,04,13,05,08,5.20
2011,04,13,05,09,5.20
2011,04,13,05,10,5.20
2011,04,13,05,11,5.10
2011,04,13,05,12,5.10
2011,04,13,05,13,5.10
2011,04,13,05,14,5.10
2011,04,13,05,15,5.10
2011,04,13,05,16,5.10
2011,04,13,05,17,5.10
2011,04,13,05,18,5.10
2011,04,13,05,19,5.10
2011,04,13,05,20,5.10
2011,04,13,05,21,5.10
2011,04,13,05,22,5.10
2011,04,13,05,23,5.10
2011,04,13,05,24,5.00
2011,04,13,05,25,5.00
2011,04,13,05,26,5.00
2011,04,13,05,27,5.00
2011,04,13,05,28,5.00
2011,04,13,05,29,5.00
2011,04,13,05,30,4.90
2011,04,13,05,31,4.90
2011,04,13,05,32,4.90
2011,04,13,05,33,4.90
2011,04,13,05,34,4.90
2011,04,13,05,35,4.90
2011,04,13,05,36,4.90
2011,04,13,05,37,4.90
2011,04,13,05,38,4.90
2011,04,13,05,39,4.90
2011,04,13,05,40,4.90
2011,04,13,05,41,4.90
2011,04,13,05,42,4.90
2011,04,13,05,43,4.90
2011,04,13,05,44,4.90
2011,04,13,05,45,4.90
2011,04,13,05,46,4.80
2011,04,13,05,47,4.80
2011,04,13,05,48,4.80
2011,04,13,05,49,4.80
2011,04,13,05,50,4.80
2011,04,13,05,51,4.70
2011,04,13,05,52,4.70
2011,04,13,05,53,4.70
2011,04,13,05,54,4.70
2011,04,13,05,55,4.80
2011,04,13,05,56,4.80
2011,04,13,05,57,4.80
2011,04,13,05,58,4.80
2011,04,13,05,59,4.80
2011,04,13,06,00,4.80
2011,04,13,06,01,4.80
2011,04,13,06,02,4.80
2011,04,13,06,03,4.80
2011,04,13,06,04,4.80
2011,04,13,06,05,4.80
2011,04,13,06,06,4.80
2011,04,13,06,07,4.80
2011,04,13,06,08,4.80
2011,04,13,06,09,4.80
2011,04,13,06,10,4.90
2011,04,13,06,11,4.90
2011,04,13,06,12,4.90
2011,04,13,06,13,4.90
2011,04,13,06,14,4.90
2011,04,13,06,15,4.90
2011,04,13,06,16,4.90
2011,04,13,06,17,4.90
2011,04,13,06,18,4.90
2011,04,13,06,19,4.90
2011,04,13,06,20,4.90
2011,04,13,06,21,4.90
2011,04,13,06,22,4.90
2011,04,13,06,23,4.90
2011,04,13,06,24,4.90
2011,04,13,06,25,4.90
2011,04,13,06,26,4.90
2011,04,13,06,27,5.00
2011,04,13,06,28,5.00
2011,04,13,06,29,5.10
2011,04,13,06,30,5.10
2011,04,13,06,31,5.10
2011,04,13,06,32,5.10
2011,04,13,06,33,5.10
2011,04,13,06,34,5.10
2011,04,13,06,35,5.10
2011,04,13,06,36,5.20
2011,04,13,06,37,5.20
2011,04,13,06,38,5.20
2011,04,13,06,39,5.20
2011,04,13,06,40,5.20
2011,04,13,06,41,5.20
2011,04,13,06,42,5.20
2011,04,13,06,43,5.20
2011,04,13,06,44,5.20
2011,04,13,06,45,5.20
2011,04,13,06,46,5.20
2011,04,13,06,47,5.20
2011,04,13,06,48,5.20
2011,04,13,06,49,5.20
2011,04,13,06,50,5.20
2011,04,13,06,51,5.20
2011,04,13,06,52,5.20
2011,04,13,06,53,5.20
2011,04,13,06,54,5.20
2011,04,13,06,55,5.20
2011,04,13,06,56,5.20
2011,04,13,06,57,5.20
2011,04,13,06,58,5.20
2011,04,13,06,59,5.20
2011,04,13,07,00,5.20
2011,04,13,07,01,5.20
2011,04,13,07,02,5.20
2011,04,13,07,03,5.30
2011,04,13,07,04,5.30
2011,04,13,07,05,5.30
2011,04,13,07,06,5.30
2011,04,13,07,07,5.30
2011,04,13,07,08,5.30
2011,04,13,07,09,5.30
2011,04,13,07,10,5.30
2011,04,13,07,11,5.20
2011,04,13,07,12,5.20
2011,04,13,07,13,5.20
2011,04,13,07,14,5.20
2011,04,13,07,15,5.20
2011,04,13,07,16,5.20
2011,04,13,07,17,5.20
2011,04,13,07,18,5.20
2011,04,13,07,19,5.20
2011,04,13,07,20,5.20
2011,04,13,07,21,5.20
2011,04,13,07,22,5.20
2011,04,13,07,23,5.30
2011,04,13,07,24,5.30
2011,04,13,07,25,5.30
2011,04,13,07,26,5.30
2011,04,13,07,27,5.30
2011,04,13,07,28,5.30
2011,04,13,07,29,5.30
2011,04,13,07,30,5.30
2011,04,13,07,31,5.30
2011,04,13,07,32,5.30
2011,04,13,07,33,5.30
2011,04,13,07,34,5.30
2011,04,13,07,35,5.40
2011,04,13,07,36,5.40
2011,04,13,07,37,5.40
2011,04,13,07,38,5.40
2011,04,13,07,39,5.40
2011,04,13,07,40,5.40
2011,04,13,07,41,5.40
2011,04,13,07,42,5.40
2011,04,13,07,43,5.50
2011,04,13,07,44,5.40
2011,04,13,07,45,5.40
2011,04,13,07,46,5.50
2011,04,13,07,47,5.50
2011,04,13,07,48,5.50
2011,04,13,07,49,5.50
2011,04,13,07,50,5.60
2011,04,13,07,51,5.60
2011,04,13,07,52,5.60
2011,04,13,07,53,5.60
2011,04,13,07,54,5.60
2011,04,13,07,55,5.60
2011,04,13,07,56,5.60
2011,04,13,07,57,5.60
2011,04,13,07,58,5.60
2011,04,13,07,59,5.60
2011,04,13,08,00,5.60
2011,04,13,08,01,5.60
2011,04,13,08,02,5.70
2011,04,13,08,03,5.70
2011,04,13,08,04,5.70
2011,04,13,08,05,5.70
2011,04,13,08,06,5.70
2011,04,13,08,07,5.70
2011,04,13,08,08,5.80
2011,04,13,08,09,5.80
2011,04,13,08,10,5.80
2011,04,13,08,11,5.80
2011,04,13,08,12,5.80
2011,04,13,08,13,5.80
2011,04,13,08,14,5.80
2011,04,13,08,15,5.80
2011,04,13,08,16,5.80
2011,04,13,08,17,5.80
2011,04,13,08,18,5.90
2011,04,13,08,19,5.90
2011,04,13,08,20,5.90
2011,04,13,08,21,5.90
2011,04,13,08,22,5.90
2011,04,13,08,23,5.90
2011,04,13,08,24,5.90
2011,04,13,08,25,5.90
2011,04,13,08,26,5.90
2011,04,13,08,27,5.90
2011,04,13,08,28,5.90
2011,04,13,08,29,5.90
2011,04,13,08,30,5.90
2011,04,13,08,31,5.90
2011,04,13,08,32,5.90
2011,04,13,08,33,5.90
2011,04,13,08,34,5.90
2011,04,13,08,35,5.90
2011,04,13,08,36,6.00
2011,04,13,08,37,6.00
2011,04,13,08,38,6.00
2011,04,13,08,39,6.10
2011,04,13,08,40,6.10
2011,04,13,08,41,6.10
2011,04,13,08,42,6.10
2011,04,13,08,43,6.10
2011,04,13,08,44,6.10
2011,04,13,08,45,6.20
2011,04,13,08,46,6.20
2011,04,13,08,47,6.20
2011,04,13,08,48,6.20
2011,04,13,08,49,6.20
2011,04,13,08,50,6.20
2011,04,13,08,51,6.30
2011,04,13,08,52,6.30
2011,04,13,08,53,6.40
2011,04,13,08,54,6.40
2011,04,13,08,55,6.50
2011,04,13,08,56,6.50
2011,04,13,08,57,6.60
2011,04,13,08,58,6.60
2011,04,13,08,59,6.70
2011,04,13,09,00,6.70
2011,04,13,09,01,6.70
2011,04,13,09,02,6.70
2011,04,13,09,03,6.80
2011,04,13,09,04,6.80
2011,04,13,09,05,6.90
2011,04,13,09,06,6.90
2011,04,13,09,07,7.00
2011,04,13,09,08,7.00
2011,04,13,09,09,7.10
2011,04,13,09,10,7.10
2011,04,13,09,11,7.20
2011,04,13,09,12,7.20
2011,04,13,09,13,7.20
2011,04,13,09,14,7.20
2011,04,13,09,15,7.20
2011,04,13,09,16,7.20
2011,04,13,09,17,7.20
2011,04,13,09,18,7.20
2011,04,13,09,19,7.20
2011,04,13,09,20,7.20
2011,04,13,09,21,7.20
2011,04,13,09,22,7.20
2011,04,13,09,23,7.30
2011,04,13,09,24,7.30
2011,04,13,09,25,7.30
2011,04,13,09,26,7.30
2011,04,13,09,27,7.30
2011,04,13,09,28,7.30
2011,04,13,09,29,7.40
2011,04,13,09,30,7.40
2011,04,13,09,31,7.40
2011,04,13,09,32,7.40
2011,04,13,09,33,7.50
2011,04,13,09,34,7.50
2011,04,13,09,35,7.60
2011,04,13,09,36,7.60
2011,04,13,09,37,7.60
2011,04,13,09,38,7.60
2011,04,13,09,39,7.60
2011,04,13,09,40,7.70
2011,04,13,09,41,7.70
2011,04,13,09,42,7.70
2011,04,13,09,43,7.70
2011,04,13,09,44,7.70
2011,04,13,09,45,7.80
2011,04,13,09,46,7.80
2011,04,13,09,47,7.80
2011,04,13,09,48,7.80
2011,04,13,09,49,7.90
2011,04,13,09,50,7.90
2011,04,13,09,51,8.00
2011,04,13,09,52,8.00
2011,04,13,09,53,8.10
2011,04,13,09,54,8.10
2011,04,13,09,55,8.10
2011,04,13,09,56,8.10
2011,04,13,09,57,8.10
2011,04,13,09,58,8.10
2011,04,13,09,59,8.20
2011,04,13,10,00,8.10
2011,04,13,10,01,8.10
2011,04,13,10,02,8.10
2011,04,13,10,03,8.10
2011,04,13,10,04,8.20
2011,04,13,10,05,8.20
2011,04,13,10,06,8.30
2011,04,13,10,07,8.30
2011,04,13,10,08,8.30
2011,04,13,10,09,8.30
2011,04,13,10,10,8.30
2011,04,13,10,11,8.30
2011,04,13,10,12,8.30
2011,04,13,10,13,8.30
2011,04,13,10,14,8.30
2011,04,13,10,15,8.30
2011,04,13,10,16,8.30
2011,04,13,10,17,8.40
2011,04,13,10,18,8.40
2011,04,13,10,19,8.40
2011,04,13,10,20,8.50
2011,04,13,10,21,8.60
2011,04,13,10,22,8.60
2011,04,13,10,23,8.70
2011,04,13,10,24,8.60
2011,04,13,10,25,8.60
2011,04,13,10,26,8.70
2011,04,13,10,27,8.70
2011,04,13,10,28,8.70
2011,04,13,10,29,8.70
